Location: *
(43.0409°N, 0.1694°E)
Time: 21:16:52
(UTC+00:00)

Cosmos 2219 Rocket - Pass Details

Date: 03 October 2023
Orbit: 826 x 848 km, 71.0° (Epoch: 04 December)

Event Time Altitude Azimuth Distance (km) Brightness Sun altitude
Rises 03:05:16 0° 335° (NNW) 3,399 5.4 -31.5°
Enters shadow 03:07:18 - 336° (NNW) 2,621 4.8 -31.2°
Exits shadow 03:18:03 16° 154° (SSE) 2,086 4.2 -29.4°
Drops below altitude 10° 03:19:03 10° 155° (SSE) 2,460 4.6 -29.2°
Sets 03:21:29 0° 156° (SSE) 3,393 5.4 -28.8°
